SV7RNH Weather Reports


time (UTC)temp
C
wind
direction
speed
KPH
gust
KPH
rain 1hr
cm
rain 24hr
cm
rain mn
cm
humidity
%
barometer
mb
20260508070503 19 0 0.0 6.4 0.00 0.00 0.00 66 1019.1
20260508070004 18 135 3.2 6.4 0.00 0.00 0.00 66 1019.0
20260508065504 18 135 3.2 6.4 0.00 0.00 0.00 67 1019.1
20260508065003 18 140 1.6 6.4 0.00 0.00 0.00 67 1019.0
20260508064503 18 218 1.6 6.4 0.00 0.00 0.00 67 1019.0
20260508064004 18 252 1.6 6.4 0.00 0.00 0.00 68 1018.9
20260508063503 18 228 3.2 8.0 0.00 0.00 0.00 68 1018.9
20260508063003 18 234 3.2 8.0 0.00 0.00 0.00 67 1018.8
20260508062503 18 256 3.2 6.4 0.00 0.00 0.00 67 1018.8
20260508062003 18 225 1.6 4.8 0.00 0.00 0.00 67 1018.6
20260508061504 18 0 0.0 4.8 0.00 0.00 0.00 67 1018.5
20260508061003 18 225 1.6 3.2 0.00 0.00 0.00 67 1018.5
20260508060503 18 225 1.6 3.2 0.00 0.00 0.00 67 1018.4
20260508060004 18 225 1.6 3.2 0.00 0.00 0.00 67 1018.4
20260508055503 18 0 0.0 3.2 0.00 0.00 0.00 67 1018.1
20260508055004 18 0 0.0 1.6 0.00 0.00 0.00 67 1018.1
20260508054503 18 0 0.0 1.6 0.00 0.00 0.00 67 1018.0
20260508054003 18 0 0.0 3.2 0.00 0.00 0.00 67 1017.9
20260508053503 18 0 0.0 3.2 0.00 0.00 0.00 67 1017.9
20260508053004 18 0 0.0 3.2 0.00 0.00 0.00 67 1017.9
20260508052503 18 0 0.0 3.2 0.00 0.00 0.00 68 1017.8
20260508052003 18 0 0.0 1.6 0.00 0.00 0.00 68 1017.8
20260508051503 17 0 0.0 1.6 0.00 0.00 0.00 68 1017.9
20260508051004 17 0 0.0 1.6 0.00 0.00 0.00 68 1017.8
20260508050504 17 0 0.0 0.0 0.00 0.00 0.00 68 1017.9
20260508050003 17 0 0.0 0.0 0.00 0.00 0.00 69 1017.8
20260508045503 17 0 0.0 0.0 0.00 0.00 0.00 69 1017.8
20260508045003 17 0 0.0 0.0 0.00 0.00 0.00 69 1017.8
20260508044504 17 0 0.0 3.2 0.00 0.00 0.00 69 1017.7
20260508044003 17 0 0.0 3.2 0.00 0.00 0.00 69 1017.7
20260508043503 17 0 0.0 3.2 0.00 0.00 0.00 70 1017.6
20260508043004 17 0 0.0 3.2 0.00 0.00 0.00 70 1017.5
20260508042504 17 0 0.0 3.2 0.00 0.00 0.00 70 1017.5
20260508042003 17 0 0.0 3.2 0.00 0.00 0.00 70 1017.3
20260508041504 16 0 0.0 3.2 0.00 0.00 0.00 70 1017.3
20260508041003 16 0 0.0 3.2 0.00 0.00 0.00 69 1017.4
20260508040503 16 0 0.0 3.2 0.00 0.00 0.00 69 1017.5
20260508040004 16 0 0.0 4.8 0.00 0.00 0.00 69 1017.4
20260508035503 16 0 0.0 4.8 0.00 0.00 0.00 69 1017.5
20260508035003 16 0 0.0 1.6 0.00 0.00 0.00 69 1017.5
20260508034503 16 0 0.0 1.6 0.00 0.00 0.00 69 1017.6
20260508034004 16 0 0.0 0.0 0.00 0.00 0.00 69 1017.8
20260508033503 16 0 0.0 0.0 0.00 0.00 0.00 69 1017.9
20260508033003 16 0 0.0 3.2 0.00 0.00 0.00 69 1017.9
20260508032503 16 0 0.0 3.2 0.00 0.00 0.00 69 1017.8
20260508032004 16 0 0.0 3.2 0.00 0.00 0.00 69 1017.8
20260508031503 16 0 0.0 3.2 0.00 0.00 0.00 69 1017.7
20260508031003 16 0 0.0 0.0 0.00 0.00 0.00 68 1017.6
20260508030504 16 0 0.0 0.0 0.00 0.00 0.00 68 1017.5
20260508030004 16 0 0.0 1.6 0.00 0.00 0.00 68 1017.5
20260508025503 16 0 0.0 3.2 0.00 0.00 0.00 68 1017.5
20260508025003 16 0 0.0 3.2 0.00 0.00 0.00 68 1017.5
20260508024504 16 0 0.0 3.2 0.00 0.00 0.00 68 1017.5
20260508024004 16 225 1.6 3.2 0.00 0.00 0.00 68 1017.4
20260508023503 16 0 0.0 3.2 0.00 0.00 0.00 68 1017.4
20260508023003 16 0 0.0 3.2 0.00 0.00 0.00 68 1017.3
20260508022504 16 0 0.0 0.0 0.00 0.00 0.00 67 1017.3
20260508022003 16 0 0.0 1.6 0.00 0.00 0.00 67 1017.3
20260508021503 16 0 0.0 1.6 0.00 0.00 0.00 67 1017.2
20260508021003 16 0 0.0 1.6 0.00 0.00 0.00 67 1017.2
20260508020504 16 0 0.0 0.0 0.00 0.00 0.00 67 1017.3
20260508020004 16 0 0.0 1.6 0.00 0.00 0.00 66 1017.2
20260508015503 16 0 0.0 1.6 0.00 0.00 0.00 66 1017.2
20260508015004 16 0 0.0 1.6 0.00 0.00 0.00 66 1017.2
20260508014503 17 0 0.0 3.2 0.00 0.00 0.00 66 1017.2
20260508014004 17 0 0.0 3.2 0.00 0.00 0.00 66 1017.2
20260508013504 17 0 0.0 3.2 0.00 0.00 0.00 66 1017.2
20260508013003 17 0 0.0 3.2 0.00 0.00 0.00 66 1017.3
20260508012503 17 0 0.0 3.2 0.00 0.00 0.00 66 1017.3
20260508012004 17 0 0.0 3.2 0.00 0.00 0.00 65 1017.4
20260508011503 17 0 0.0 3.2 0.00 0.00 0.00 65 1017.6
20260508011003 17 0 0.0 3.2 0.00 0.00 0.00 65 1017.7
20260508010503 17 0 0.0 4.8 0.00 0.00 0.00 64 1017.7
20260508010004 17 0 0.0 4.8 0.00 0.00 0.00 64 1017.7
20260508005503 17 0 0.0 4.8 0.00 0.00 0.00 64 1017.8
20260508005003 17 0 0.0 6.4 0.00 0.00 0.00 64 1017.7
20260508004503 17 225 1.6 6.4 0.00 0.00 0.00 64 1017.8
20260508004004 17 225 1.6 3.2 0.00 0.00 0.00 64 1017.9
20260508003503 17 0 0.0 3.2 0.00 0.00 0.00 64 1018.0
20260508003003 17 0 0.0 3.2 0.00 0.00 0.00 64 1017.9
20260508002504 17 0 0.0 3.2 0.00 0.00 0.00 64 1017.9
20260508002004 17 0 0.0 3.2 0.00 0.00 0.00 64 1018.0
20260508001503 17 0 0.0 3.2 0.00 0.00 0.00 64 1018.2
20260508001003 17 0 0.0 3.2 0.00 0.00 0.00 64 1018.2
20260508000504 17 0 0.0 3.2 0.00 0.00 0.00 64 1018.2
20260508000004 17 0 0.0 3.2 0.00 0.00 0.00 64 1018.3
20260507235503 17 0 0.0 3.2 0.00 0.00 0.00 64 1018.3
20260507235003 17 0 0.0 3.2 0.00 0.00 0.00 64 1018.3
20260507234504 17 0 0.0 3.2 0.00 0.00 0.00 64 1018.3
20260507234004 17 0 0.0 3.2 0.00 0.00 0.00 64 1018.2
20260507233504 17 0 0.0 3.2 0.00 0.00 0.00 64 1018.2
20260507233004 17 0 0.0 3.2 0.00 0.00 0.00 64 1018.3
20260507232503 17 0 0.0 3.2 0.00 0.00 0.00 64 1018.4
20260507232003 17 0 0.0 3.2 0.00 0.00 0.00 64 1018.5
20260507231504 17 0 0.0 3.2 0.00 0.00 0.00 64 1018.5
20260507231003 17 36 1.6 3.2 0.00 0.00 0.00 63 1018.5
20260507230503 17 0 0.0 3.2 0.00 0.00 0.00 63 1018.6
20260507230003 17 0 0.0 6.4 0.00 0.00 0.00 63 1018.5
20260507225504 17 10 1.6 6.4 0.00 0.00 0.00 63 1018.7
20260507225003 17 0 0.0 3.2 0.00 0.00 0.00 63 1018.7
20260507224504 17 0 0.0 3.2 0.00 0.00 0.00 63 1018.7
20260507224003 17 0 0.0 1.6 0.00 0.00 0.00 63 1018.8
20260507223504 17 0 0.0 3.2 0.00 0.00 0.00 62 1019.0
20260507223003 17 0 0.0 3.2 0.00 0.00 0.00 62 1018.9
20260507222503 17 0 0.0 3.2 0.00 0.00 0.00 62 1018.9
20260507222003 17 0 0.0 3.2 0.00 0.00 0.00 62 1019.0
20260507221504 17 0 0.0 4.8 0.00 0.00 0.00 62 1019.0
20260507221003 17 0 0.0 4.8 0.00 0.00 0.00 62 1018.9
20260507220503 17 42 3.2 4.8 0.00 0.00 0.00 62 1018.9
20260507220003 17 23 3.2 4.8 0.00 0.00 0.00 62 1018.8
20260507215504 18 0 0.0 4.8 0.00 0.00 0.00 62 1018.9
20260507215003 18 0 0.0 4.8 0.00 0.00 0.00 61 1018.9
20260507214503 18 0 0.0 4.8 0.00 0.00 0.00 61 1018.9
20260507214003 18 0 0.0 4.8 0.00 0.00 0.00 61 1018.8
20260507213504 18 0 0.0 3.2 0.00 0.00 0.00 61 1018.7
20260507213003 18 0 0.0 4.8 0.00 0.00 0.00 61 1018.8
20260507212503 18 23 1.6 4.8 0.00 0.00 0.00 61 1018.8
20260507212003 18 0 0.0 6.4 0.00 0.00 0.00 61 1018.8
20260507211504 18 0 0.0 6.4 0.00 0.00 0.00 61 1018.8
20260507211003 18 43 3.2 6.4 0.00 0.00 0.00 61 1018.8
20260507210503 18 0 0.0 6.4 0.00 0.00 0.00 61 1018.7
20260507210004 18 0 0.0 4.8 0.00 0.00 0.00 60 1018.7
20260507205503 18 0 0.0 4.8 0.00 0.00 0.00 60 1018.7
20260507205003 18 0 0.0 4.8 0.00 0.00 0.00 60 1018.7
20260507204504 18 0 0.0 3.2 0.00 0.00 0.00 60 1018.7
20260507204003 18 0 0.0 3.2 0.00 0.00 0.00 60 1018.7
20260507203503 18 0 0.0 3.2 0.00 0.00 0.00 60 1018.7
20260507203003 18 0 0.0 3.2 0.00 0.00 0.00 60 1018.7
20260507202504 18 0 0.0 3.2 0.00 0.00 0.00 59 1018.7
20260507202004 18 0 0.0 4.8 0.00 0.00 0.00 59 1018.7
20260507201503 18 0 0.0 6.4 0.00 0.00 0.00 59 1018.7
20260507201004 18 32 3.2 6.4 0.00 0.00 0.00 58 1018.7
20260507200503 18 0 0.0 4.8 0.00 0.00 0.00 58 1018.7
20260507200003 18 0 0.0 3.2 0.00 0.00 0.00 58 1018.7
20260507195503 19 0 0.0 3.2 0.00 0.00 0.00 58 1018.7
20260507195004 19 0 0.0 3.2 0.00 0.00 0.00 58 1018.7
20260507194503 19 162 3.2 3.2 0.00 0.00 0.00 58 1018.7
20260507194003 19 0 0.0 3.2 0.00 0.00 0.00 57 1018.8
20260507193503 19 0 0.0 3.2 0.00 0.00 0.00 57 1018.7
20260507193004 19 0 0.0 3.2 0.00 0.00 0.00 57 1018.7
20260507192504 20 0 0.0 3.2 0.00 0.00 0.00 56 1018.7
20260507192003 20 0 0.0 3.2 0.00 0.00 0.00 56 1018.6
20260507191503 20 0 0.0 3.2 0.00 0.00 0.00 55 1018.7
20260507191004 20 181 1.6 3.2 0.00 0.00 0.00 55 1018.7
20260507190504 20 0 0.0 3.2 0.00 0.00 0.00 55 1018.6
20260507190004 20 0 0.0 0.0 0.00 0.00 0.00 55 1018.7
20260507185504 20 0 0.0 0.0 0.00 0.00 0.00 55 1018.7
20260507185004 20 0 0.0 1.6 0.00 0.00 0.00 55 1018.5
20260507184504 20 0 0.0 3.2 0.00 0.00 0.00 54 1018.6
20260507184003 20 0 0.0 3.2 0.00 0.00 0.00 54 1018.5
20260507183504 20 0 0.0 3.2 0.00 0.00 0.00 54 1018.6
20260507183003 20 0 0.0 0.0 0.00 0.00 0.00 54 1018.4
20260507182503 20 0 0.0 0.0 0.00 0.00 0.00 53 1018.6
20260507182003 20 0 0.0 0.0 0.00 0.00 0.00 53 1018.4
20260507181504 20 0 0.0 0.0 0.00 0.00 0.00 53 1018.4
20260507181003 20 0 0.0 0.0 0.00 0.00 0.00 52 1018.3
20260507180503 20 0 0.0 3.2 0.00 0.00 0.00 52 1018.4
20260507180003 20 0 0.0 3.2 0.00 0.00 0.00 52 1018.2
20260507175504 20 0 0.0 3.2 0.00 0.00 0.00 52 1018.3
20260507175003 20 0 0.0 3.2 0.00 0.00 0.00 52 1018.4
20260507174503 20 0 0.0 4.8 0.00 0.00 0.00 51 1018.5
20260507174004 20 0 0.0 4.8 0.00 0.00 0.00 51 1018.5
20260507173503 21 181 1.6 6.4 0.00 0.00 0.00 50 1018.3
20260507173003 21 0 0.0 6.4 0.00 0.00 0.00 50 1018.1
20260507172503 21 147 1.6 6.4 0.00 0.00 0.00 50 1017.7
20260507172004 21 123 3.2 4.8 0.00 0.00 0.00 50 1017.6
20260507171503 21 0 0.0 6.4 0.00 0.00 0.00 51 1017.8
20260507171003 21 122 1.6 6.4 0.00 0.00 0.00 52 1018.0
20260507170504 21 52 3.2 8.0 0.00 0.00 0.00 52 1018.2
20260507170004 21 113 3.2 8.0 0.00 0.00 0.00 52 1018.2
20260507165503 21 156 3.2 8.0 0.00 0.00 0.00 52 1018.2
20260507165003 21 156 3.2 6.4 0.00 0.00 0.00 52 1018.4
20260507164504 21 142 3.2 8.0 0.00 0.00 0.00 52 1018.4
20260507164003 21 135 3.2 8.0 0.00 0.00 0.00 53 1018.4
20260507163503 21 135 3.2 6.4 0.00 0.00 0.00 52 1018.4
20260507163003 21 135 3.2 6.4 0.00 0.00 0.00 51 1018.3
20260507162504 21 135 3.2 6.4 0.00 0.00 0.00 50 1018.4
20260507162003 21 128 3.2 6.4 0.00 0.00 0.00 49 1018.6
20260507161503 21 130 3.2 9.7 0.00 0.00 0.00 48 1018.6
20260507161003 22 147 3.2 9.7 0.00 0.00 0.00 46 1018.6
20260507160503 22 147 3.2 8.0 0.00 0.00 0.00 46 1018.5
20260507160003 22 142 3.2 8.0 0.00 0.00 0.00 44 1018.6
20260507155504 22 156 3.2 8.0 0.00 0.00 0.00 43 1018.3
20260507155003 22 152 4.8 8.0 0.00 0.00 0.00 43 1018.3
20260507154503 22 135 1.6 4.8 0.00 0.00 0.00 43 1018.4
20260507154003 22 0 0.0 4.8 0.00 0.00 0.00 42 1018.5
20260507153504 22 0 0.0 6.4 0.00 0.00 0.00 41 1018.4
20260507153003 22 124 3.2 8.0 0.00 0.00 0.00 41 1018.7
20260507152503 22 226 1.6 8.0 0.00 0.00 0.00 41 1018.8
20260507152003 23 254 3.2 8.0 0.00 0.00 0.00 40 1018.8
20260507151504 23 239 3.2 6.4 0.00 0.00 0.00 40 1018.8
20260507151003 23 230 1.6 4.8 0.00 0.00 0.00 39 1018.8
20260507150503 23 0 0.0 3.2 0.00 0.00 0.00 35 1018.7
20260507150004 23 0 0.0 4.8 0.00 0.00 0.00 35 1018.6
20260507145503 24 225 1.6 4.8 0.00 0.00 0.00 34 1018.5
20260507145003 24 225 1.6 4.8 0.00 0.00 0.00 34 1018.6
20260507144503 24 225 1.6 4.8 0.00 0.00 0.00 34 1018.7
20260507144004 25 225 3.2 4.8 0.00 0.00 0.00 33 1018.7
20260507143503 25 225 1.6 4.8 0.00 0.00 0.00 34 1018.7
20260507143003 25 0 0.0 3.2 0.00 0.00 0.00 35 1018.7
20260507142503 25 0 0.0 6.4 0.00 0.00 0.00 35 1018.6
20260507142004 25 0 0.0 6.4 0.00 0.00 0.00 35 1018.6
20260507141503 25 247 1.6 6.4 0.00 0.00 0.00 35 1018.5
20260507141003 25 0 0.0 3.2 0.00 0.00 0.00 36 1018.5
20260507140504 24 227 1.6 3.2 0.00 0.00 0.00 36 1018.5
20260507140003 24 0 0.0 8.0 0.00 0.00 0.00 37 1018.5
20260507135503 23 0 0.0 8.0 0.00 0.00 0.00 37 1018.4
20260507135003 23 0 0.0 6.4 0.00 0.00 0.00 37 1018.4
20260507134504 23 227 3.2 6.4 0.00 0.00 0.00 37 1018.6
20260507134003 23 151 1.6 6.4 0.00 0.00 0.00 39 1018.6
20260507133503 22 20 1.6 6.4 0.00 0.00 0.00 40 1018.5
20260507133003 22 254 1.6 6.4 0.00 0.00 0.00 41 1018.6
20260507132504 22 244 3.2 6.4 0.00 0.00 0.00 41 1018.6
20260507132003 22 316 1.6 8.0 0.00 0.00 0.00 42 1018.6
20260507131503 22 347 1.6 8.0 0.00 0.00 0.00 43 1018.7
20260507131003 22 0 0.0 6.4 0.00 0.00 0.00 44 1018.8
20260507130504 22 0 0.0 8.0 0.00 0.00 0.00 44 1018.7
20260507130004 22 56 1.6 8.0 0.00 0.00 0.00 45 1018.7
20260507125503 21 0 0.0 4.8 0.00 0.00 0.00 46 1018.9
20260507125004 21 0 0.0 12.9 0.00 0.00 0.00 46 1018.9
20260507124504 21 0 0.0 12.9 0.00 0.00 0.00 45 1018.7
20260507124004 22 86 4.8 11.3 0.00 0.00 0.00 44 1018.7
20260507123503 22 136 1.6 9.7 0.00 0.00 0.00 44 1018.9
20260507123003 22 112 1.6 6.4 0.00 0.00 0.00 45 1019.1
20260507122504 22 76 3.2 6.4 0.00 0.00 0.00 48 1019.4
20260507122004 21 0 0.0 6.4 0.00 0.00 0.00 52 1019.7
20260507121503 20 138 3.2 9.7 0.00 0.00 0.00 54 1019.6
20260507121003 20 102 3.2 11.3 0.00 0.00 0.00 54 1019.7
20260507120504 20 92 4.8 12.9 0.00 0.00 0.00 55 1019.6
20260507120004 20 85 3.2 12.9 0.00 0.00 0.00 56 1019.6
20260507115503 21 0 0.0 9.7 0.00 0.00 0.00 57 1019.7
20260507115003 21 225 3.2 9.7 0.00 0.00 0.00 56 1019.7
20260507114504 21 0 0.0 4.8 0.00 0.00 0.00 56 1019.9
20260507114003 21 0 0.0 4.8 0.00 0.00 0.00 56 1020.1
20260507113503 21 0 0.0 3.2 0.00 0.00 0.00 55 1020.3
20260507113003 21 0 0.0 3.2 0.00 0.00 0.00 55 1020.3
20260507112504 21 225 1.6 3.2 0.00 0.00 0.00 54 1020.3
20260507112003 21 0 0.0 3.2 0.00 0.00 0.00 54 1020.3
20260507111503 21 0 0.0 3.2 0.00 0.00 0.00 53 1020.4
20260507111003 21 0 0.0 1.6 0.00 0.00 0.00 53 1020.5
20260507110503 21 0 0.0 1.6 0.00 0.00 0.00 52 1020.4
20260507110003 21 0 0.0 3.2 0.00 0.00 0.00 52 1020.3
20260507105503 21 0 0.0 3.2 0.00 0.00 0.00 52 1020.4
20260507105003 21 0 0.0 3.2 0.00 0.00 0.00 52 1020.2
20260507104503 21 0 0.0 3.2 0.00 0.00 0.00 51 1020.3
20260507104004 21 0 0.0 3.2 0.00 0.00 0.00 51 1020.3
20260507103503 21 0 0.0 4.8 0.00 0.00 0.00 50 1020.2
20260507103003 22 0 0.0 4.8 0.00 0.00 0.00 50 1020.3
20260507102503 22 0 0.0 3.2 0.00 0.00 0.00 50 1020.3
20260507102004 22 0 0.0 3.2 0.00 0.00 0.00 50 1020.3
20260507101503 22 0 0.0 4.8 0.00 0.00 0.00 49 1020.2
20260507101003 22 225 1.6 6.4 0.00 0.00 0.00 49 1020.2
20260507100503 22 0 0.0 6.4 0.00 0.00 0.00 49 1020.2
20260507100004 22 225 3.2 6.4 0.00 0.00 0.00 48 1020.1
20260507095503 22 0 0.0 6.4 0.00 0.00 0.00 49 1020.1
20260507095003 22 0 0.0 6.4 0.00 0.00 0.00 49 1020.0
20260507094504 22 234 1.6 6.4 0.00 0.00 0.00 49 1020.1
20260507094004 22 235 1.6 6.4 0.00 0.00 0.00 49 1020.0
20260507093504 22 230 3.2 6.4 0.00 0.00 0.00 48 1019.9
20260507093003 22 0 0.0 6.4 0.00 0.00 0.00 47 1019.8
20260507092503 22 0 0.0 3.2 0.00 0.00 0.00 46 1019.7
20260507092003 22 0 0.0 3.2 0.00 0.00 0.00 46 1019.5
20260507091504 22 0 0.0 3.2 0.00 0.00 0.00 47 1019.3
20260507091003 22 0 0.0 3.2 0.00 0.00 0.00 48 1019.3
20260507090503 22 0 0.0 3.2 0.00 0.00 0.00 49 1019.3
20260507090003 22 0 0.0 4.8 0.00 0.00 0.00 49 1019.4
20260507085504 22 0 0.0 4.8 0.00 0.00 0.00 50 1019.3
20260507085003 21 0 0.0 4.8 0.00 0.00 0.00 51 1019.2
20260507084503 21 0 0.0 4.8 0.00 0.00 0.00 51 1019.3
20260507084003 21 0 0.0 4.8 0.00 0.00 0.00 51 1019.3
20260507083504 21 0 0.0 4.8 0.00 0.00 0.00 51 1019.1
20260507083004 21 0 0.0 3.2 0.00 0.00 0.00 52 1019.2
20260507082503 21 0 0.0 4.8 0.00 0.00 0.00 52 1019.1
20260507082004 21 0 0.0 6.4 0.00 0.00 0.00 52 1019.0
20260507081503 21 240 1.6 6.4 0.00 0.00 0.00 52 1018.8
20260507081004 21 228 3.2 6.4 0.00 0.00 0.00 52 1018.8
20260507080503 21 232 3.2 6.4 0.00 0.00 0.00 51 1018.9
20260507080003 21 238 3.2 6.4 0.00 0.00 0.00 51 1018.9
20260507075504 22 224 3.2 6.4 0.00 0.00 0.00 49 1018.7
20260507075004 22 0 0.0 4.8 0.00 0.00 0.00 49 1018.6
20260507074503 22 0 0.0 4.8 0.00 0.00 0.00 49 1018.5
20260507074003 22 0 0.0 6.4 0.00 0.00 0.00 50 1018.5
20260507073503 21 192 1.6 6.4 0.00 0.00 0.00 50 1018.4
20260507073003 22 350 3.2 6.4 0.00 0.00 0.00 48 1018.2
20260507072503 22 1 1.6 4.8 0.00 0.00 0.00 48 1018.2
20260507072004 22 1 1.6 4.8 0.00 0.00 0.00 48 1018.2
20260507071504 22 0 0.0 4.8 0.00 0.00 0.00 50 1018.4
20260507071003 22 0 0.0 6.4 0.00 0.00 0.00 50 1018.4